Reflectivity
-20 -20 -20 -20 -20 8 -0 -2 8 7 11 15 25 28 26 29 21 27 19 23 25 9 -10 -15 -20 -20 -20 -20 -20 -20 -20 -20
-20 -20 -20 -20 0 5 2 0 7 2 11 20 15 11 13 14 25 30 14 -2 4 2 -13 -20 -20 -20 -20 -20 -20 -20 -20 -20
-20 -20 -20 -9 2 3 6 -5 11 11 -3 12 8 -4 11 14 19 19 11 8 3 -11 -11 -17 -20 -20 -20 -20 -20 -20 -20 -20
-20 -20 -20 -18 -7 6 0 9 -8 -7 22 16 17 21 21 18 1 -5 14 18 5 -20 -20 -20 -20 -20 -20 -20 -20 -20 -20 -5
-20 -20 -20 -20 -20 -8 3 3 -13 -1 3 10 12 19 28 6 15 -3 13 -15 -19 -15 -20 -20 -20 -20 -20 -20 -20 -20 -20 -20
-20 -20 -20 -20 -20 -20 0 6 9 -4 3 -14 -9 15 12 20 7 15 -12 -18 -13 -20 -20 -20 -20 -20 -20 -20 -20 -20 -20 26
-20 -20 -20 -20 -20 -20 -20 -1 9 -10 -20 -20 -20 -5 -5 -15 4 10 7 -12 -20 -20 -20 -20 17 31 -20 -3 -2 -20 -20 -20
-20 -20 -20 -20 -20 -20 -20 -20 -15 6 -6 -18 -20 -20 -20 -20 -20 -20 -20 -19 -18 -5 -20 -20 -20 -20 -20 -20 30 -2 -20 -10
-20 -20 -20 -20 -20 -20 -20 -20 -20 -17 -7 -19 3 2 -20 -20 -20 -20 -20 -20 -20 -20 -20 -20 -20 -20 -20 -20 -20 -20 -20 -20
-20 -20 -20 -20 -20 -20 -20 -20 -20 -20 -20 2 1 -5 -20 -20 -20 -20 -20 -20 -20 -20 -20 -20 -20 -20 -20 -20 -20 -20 -20 -20
-20 -20 -20 -20 -20 -20 -20 -20 -20 -20 -20 -20 -20 -20 -20 -20 -20 -20 -20 -20 -20 -20 -20 -20 -14 -20 -20 -20 -20 -20 -20 -20
-20 -20 -20 -20 -20 -20 -20 -20 -20 -20 -20 -20 -20 -20 -20 -20 -20 -20 -20 -20 -20 -20 -20 -20 -20 -20 -20 -20 -20 -20 -20 -20
-20 -20 -20 -20 -20 -20 -20 -20 -20 -20 -20 -20 -20 -20 -20 -20 -20 -20 -20 -20 -20 -20 -20 -20 -20 -20 -20 -20 -20 -20 -20 -20
-20 -20 -20 -20 -20 -20 -20 -20 -20 -20 -20 -20 -20 -20 -20 -20 -20 -20 -20 -20 -20 -20 -20 -20 -20 -20 -20 -20 -20 2 7 -20
-20 -20 -20 -20 -20 -20 -20 -20 -20 -20 -20 -20 -20 -20 -20 -20 7 -20 -20 -20 -20 -20 -20 -20 -20 -20 -20 -20 -20 -20 2 -20
-20 -20 -20 -20 -20 -20 -20 -20 -20 -20 -20 -20 -20 -20 -20 -20 -20 16 -20 -20 -20 -20 -20 -20 -20 -20 -20 -20 -20 -20 -12 -20
-20 -20 -20 -20 -20 -20 -20 -20 -20 -20 -20 -20 -20 -20 -20 -20 -20 -20 -20 -20 -20 -20 -20 -20 -20 -20 -20 -20 -7 14 -1 -20
-20 -20 -20 -20 -20 -20 -20 -20 -20 -20 -20 -20 -20 -20 -20 -20 -20 -20 -20 -20 -20 -20 -20 -20 -14 -17 5 11 15 -1 -11 14
-20 -20 -20 -20 -20 -20 -20 -20 -20 -20 -20 -20 -20 -20 -20 -20 -20 -20 -20 -20 -20 -20 -18 -8 -8 9 16 21 17 5 -14 -11
Wind_Speed
9 9 8 9 9 9 12 10 13 12 9 9 8 7 5 4 5 8 12 10 13 11 10 10 10 9 9 8 9 7 8 8
11 11 10 10 10 9 10 13 12 9 9 9 9 10 9 7 7 11 11 11 13 12 10 10 11 11 11 10 8 10 8 8
13 13 14 12 12 12 13 11 16 11 9 8 6 9 10 10 11 12 12 12 14 12 11 11 12 9 10 11 10 8 8 9
16 15 15 15 16 15 13 14 13 14 12 8 6 6 5 9 10 12 12 15 16 15 14 11 13 10 10 12 11 11 8 9
17 17 17 16 15 15 16 14 15 13 14 12 15 12 12 10 12 12 13 15 15 16 15 14 13 11 11 12 11 10 11 9
19 19 18 16 16 16 16 17 17 15 15 15 13 12 9 9 9 12 13 15 16 15 14 15 14 11 12 14 12 12 11 11
18 17 16 16 15 16 16 17 17 17 17 17 17 17 14 12 12 10 9 8 10 12 15 12 13 12 12 11 13 13 12 11
18 20 19 18 19 19 17 19 19 18 18 21 21 20 19 19 18 14 15 9 8 10 12 14 11 12 11 10 11 11 12 12
18 21 20 20 21 21 20 21 21 22 20 21 22 25 16 15 18 16 13 14 14 13 14 15 16 14 13 12 10 11 12 12
15 19 21 21 21 22 21 21 21 22 23 20 21 20 22 19 20 18 14 16 14 16 17 17 17 16 16 15 12 14 14 14
12 17 20 20 20 19 20 21 22 22 22 21 20 22 23 21 18 20 20 18 19 19 19 17 17 17 17 17 14 15 16 13
8 13 16 18 18 20 21 21 22 22 22 21 21 20 22 21 19 20 20 19 19 21 21 20 20 20 20 18 19 18 18 16
6 11 14 18 20 20 21 21 22 23 21 21 21 20 21 21 21 21 20 20 19 19 19 20 21 20 19 19 19 17 18 18
6 6 12 16 18 19 21 22 23 21 21 22 21 22 21 22 23 22 22 21 21 21 21 21 22 20 19 17 15 18 18 16
10 7 10 13 16 18 19 20 20 21 21 22 22 23 24 23 21 21 20 21 21 21 21 21 20 20 19 20 18 18 19 16
14 10 10 12 15 17 18 18 19 20 21 22 23 22 21 21 21 21 20 20 19 20 19 19 19 18 14 19 18 17 16 13
18 15 11 12 14 16 16 18 20 20 21 23 21 21 21 22 21 19 19 20 20 20 20 19 19 13 13 15 13 13 14 14
21 20 16 11 12 14 17 18 16 20 21 20 20 20 20 20 19 20 21 20 18 20 19 19 20 19 14 16 18 13 11 10
21 19 19 15 11 12 14 15 17 19 19 19 19 19 19 18 18 18 17 16 17 15 14 13 12 13 11 16 12 6 5 6
Wind_Direction
187 184 192 181 182 173 179 159 158 145 142 126 137 148 151 147 170 166 180 176 196 192 170 168 182 177 169 172 182 177 181 176
184 177 188 183 178 172 160 161 167 148 159 157 156 167 175 179 179 193 192 192 199 191 180 179 189 187 179 176 182 179 181 177
190 181 176 192 188 180 175 162 171 170 170 168 163 163 181 187 191 209 212 199 199 191 192 191 197 193 183 187 189 187 194 185
192 189 189 189 191 173 181 168 165 168 167 166 153 128 139 198 205 212 206 207 202 198 200 198 197 199 192 196 194 200 210 202
197 191 190 191 190 181 177 174 173 169 161 167 170 170 174 195 209 214 211 211 207 202 200 206 203 205 199 205 197 206 232 214
198 198 192 190 185 183 182 178 181 176 175 176 172 184 192 186 200 208 215 204 204 203 204 207 209 207 199 219 201 206 221 241
200 197 193 188 183 186 183 183 185 181 182 181 186 186 188 187 191 195 200 193 195 196 206 209 216 211 208 214 211 207 222 235
196 193 193 191 188 187 186 188 189 188 191 193 192 196 194 194 190 195 192 193 192 193 207 210 210 219 221 222 222 218 217 228
198 196 196 195 191 188 192 192 192 191 191 199 204 205 203 205 199 196 203 202 200 196 203 214 217 220 226 228 230 230 230 224
206 200 197 198 194 192 195 198 198 195 196 197 202 204 209 207 207 207 207 210 207 208 213 218 222 223 226 226 229 230 231 233
209 203 198 199 197 192 194 205 203 200 200 203 203 205 210 212 210 210 212 208 210 209 211 215 219 223 225 228 232 232 235 230
215 202 197 197 195 197 195 200 205 205 204 205 207 207 208 211 215 218 220 218 217 218 217 218 223 222 223 229 231 233 229 230
272 198 190 193 197 198 199 198 203 206 204 205 210 212 211 212 215 217 216 222 223 227 227 231 233 235 234 229 231 228 233 229
328 230 204 198 199 202 204 202 206 204 205 204 205 209 210 215 217 217 217 221 225 226 231 232 235 235 234 230 228 229 228 229
302 257 225 223 208 206 207 208 208 205 206 208 209 208 211 212 216 219 219 218 221 224 226 230 231 231 228 230 224 223 230 231
305 278 252 225 221 216 210 213 207 207 207 210 214 212 213 215 217 220 221 221 222 225 227 227 230 230 231 229 225 221 224 228
301 305 262 235 221 223 215 212 209 204 208 214 215 214 213 216 216 219 221 222 223 225 228 229 226 224 214 193 213 214 222 213
306 305 305 267 230 218 221 216 211 206 212 214 213 212 213 215 214 215 219 223 225 227 226 227 232 232 186 194 210 221 207 202
308 301 300 296 289 253 236 220 211 210 211 213 211 210 211 209 208 213 217 220 220 226 228 229 232 237 203 201 190 171 130 135